Temperature
2 2 2 2 2 2 1 3 3 4 3 4 3 2 1 -0 -1 -2 -2 -2 -2 -2 -2 -2 -2 -2 -2 -2 -2 -2 -2 -1 -1 -1 -1 -1 -1 -1 -1 -1 -1 -1 -0 -1
1 1 1 1 1 2 2 2 2 2 2 3 1 0 -0 -1 -2 -2 -2 -2 -2 -2 -3 -3 -2 -2 -2 -2 -2 -2 -2 -2 -2 -2 -2 -2 -1 -1 -1 -1 -1 -1 -1 -1
3 0 0 2 2 1 1 1 2 2 3 2 1 0 -1 -1 -2 -2 -3 -3 -3 -3 -3 -3 -3 -3 -3 -3 -3 -3 -3 -3 -2 -2 -2 -2 -2 -2 -2 -1 -1 -1 -1 -1
1 1 2 3 0 1 0 0 1 1 1 0 -0 -1 -2 -2 -2 -3 -3 -3 -3 -3 -3 -3 -3 -3 -3 -3 -3 -3 -3 -3 -3 -3 -2 -2 -2 -2 -2 -2 -2 -2 -2 -2
1 2 3 2 0 -1 -1 -0 -0 -1 -1 -1 -2 -2 -1 -2 -2 -3 -3 -3 -3 -3 -3 -3 -3 -3 -3 -3 -3 -3 -3 -3 -3 -3 -3 -3 -3 -3 -2 -2 -2 -2 -2 -2
0 2 3 3 -0 -2 -1 1 -0 -2 -2 -2 -2 -0 -0 -2 -3 -3 -3 -3 -4 -4 -4 -4 -4 -4 -4 -4 -4 -4 -4 -3 -3 -3 -3 -3 -3 -3 -3 -3 -3 -3 -3 -3
0 1 2 1 -2 -2 1 1 -1 -2 -2 -3 -2 -2 -3 -3 -3 -4 -4 -4 -4 -4 -4 -4 -4 -4 -4 -4 -4 -4 -4 -4 -4 -4 -4 -3 -3 -3 -3 -3 -3 -3 -3 -3
-0 1 2 -2 -2 -0 0 -2 -2 -3 -3 -3 -4 -4 -4 -4 -4 -4 -4 -4 -4 -4 -4 -4 -4 -4 -4 -4 -4 -4 -4 -4 -4 -4 -4 -4 -4 -4 -4 -4 -4 -4 -4 -4
-0 1 -1 -3 -2 -2 -2 -2 -3 -3 -3 -4 -4 -4 -4 -4 -4 -4 -4 -4 -5 -5 -5 -5 -5 -5 -5 -5 -5 -5 -5 -5 -5 -5 -4 -5 -4 -4 -4 -4 -4 -4 -4 -4
-3 -1 -2 -3 -3 -2 -3 -3 -3 -3 -3 -4 -4 -4 -4 -4 -4 -4 -5 -5 -5 -5 -5 -5 -5 -5 -5 -5 -5 -5 -5 -5 -5 -5 -5 -5 -5 -5 -5 -5 -5 -5 -5 -5
-3 -2 -3 -3 -2 -2 -3 -3 -3 -3 -4 -4 -4 -4 -4 -4 -5 -5 -5 -5 -5 -5 -5 -5 -5 -5 -5 -5 -5 -5 -5 -5 -5 -5 -5 -5 -5 -6 -5 -5 -5 -5 -5 -5
-1 -1 -2 -2 -2 -2 -3 -3 -3 -4 -4 -4 -5 -5 -5 -5 -5 -5 -5 -5 -5 -5 -5 -5 -5 -5 -5 -5 -5 -5 -5 -6 -6 -6 -6 -6 -6 -6 -6 -6 -6 -6 -5 -5
-2 -2 -3 -3 -3 -3 -3 -3 -4 -4 -4 -4 -5 -5 -5 -5 -5 -5 -5 -5 -5 -5 -5 -5 -5 -5 -5 -5 -5 -5 -6 -6 -6 -6 -6 -6 -6 -6 -6 -6 -6 -6 -5 -6
-3 -3 -4 -4 -4 -4 -4 -4 -4 -4 -5 -5 -5 -5 -5 -5 -5 -5 -5 -5 -5 -5 -5 -5 -5 -5 -6 -6 -6 -6 -6 -6 -6 -6 -6 -6 -6 -6 -6 -6 -6 -6 -6 -6
-4 -4 -4 -4 -4 -4 -4 -5 -5 -5 -5 -5 -5 -5 -5 -5 -5 -5 -5 -5 -5 -5 -5 -5 -6 -6 -6 -6 -6 -6 -6 -6 -6 -6 -6 -6 -6 -6 -6 -6 -6 -6 -6 -6
-4 -4 -4 -4 -5 -5 -5 -5 -5 -5 -5 -5 -5 -5 -6 -5 -6 -6 -6 -6 -6 -6 -6 -6 -6 -6 -6 -6 -6 -6 -6 -6 -6 -6 -6 -6 -6 -6 -7 -7 -6 -6 -6 -6
-5 -5 -5 -5 -5 -5 -5 -5 -5 -5 -5 -5 -6 -6 -6 -6 -6 -6 -6 -6 -6 -6 -6 -6 -6 -6 -6 -6 -6 -6 -6 -6 -6 -6 -6 -6 -6 -7 -7 -7 -7 -7 -7 -7
-4 -4 -4 -5 -5 -5 -5 -5 -6 -5 -5 -6 -6 -6 -6 -6 -6 -6 -6 -6 -6 -6 -6 -6 -6 -6 -6 -6 -6 -6 -6 -6 -6 -7 -7 -7 -7 -7 -7 -7 -7 -7 -7 -7
-5 -5 -5 -5 -5 -5 -5 -5 -6 -6 -6 -6 -6 -6 -6 -6 -6 -6 -6 -6 -6 -6 -6 -6 -6 -6 -6 -6 -6 -6 -6 -6 -6 -7 -7 -7 -7 -7 -7 -7 -7 -7 -7 -7
-5 -5 -5 -5 -5 -5 -5 -6 -6 -6 -6 -6 -6 -6 -6 -6 -6 -6 -6 -6 -6 -6 -6 -6 -6 -6 -6 -6 -6 -6 -6 -6 -7 -7 -7 -7 -7 -7 -7 -7 -7 -7 -7 -7
-5 -5 -5 -5 -5 -6 -6 -6 -6 -6 -6 -6 -6 -6 -7 -7 -7 -6 -6 -6 -6 -6 -6 -7 -7 -7 -7 -7 -7 -7 -7 -7 -7 -7 -7 -7 -7 -7 -7 -7 -7 -7 -8 -8
-5 -5 -5 -6 -6 -6 -6 -6 -6 -6 -6 -6 -7 -7 -7 -7 -7 -7 -7 -7 -7 -7 -7 -7 -7 -7 -7 -7 -7 -7 -7 -7 -7 -7 -7 -7 -7 -7 -8 -8 -8 -8 -8 -8
-5 -6 -6 -6 -6 -6 -6 -6 -6 -6 -6 -7 -7 -7 -7 -7 -7 -7 -7 -7 -7 -7 -7 -7 -7 -7 -7 -7 -7 -7 -7 -7 -7 -7 -7 -8 -8 -8 -8 -8 -8 -8 -8 -8
-6 -6 -6 -6 -6 -6 -6 -6 -6 -7 -7 -7 -7 -7 -7 -7 -7 -7 -7 -7 -7 -7 -7 -7 -7 -7 -7 -7 -7 -7 -8 -8 -8 -8 -8 -8 -8 -8 -8 -8 -8 -8 -8 -8
-6 -6 -6 -6 -6 -6 -6 -7 -7 -7 -7 -7 -7 -7 -7 -7 -7 -7 -7 -7 -7 -7 -7 -7 -7 -7 -7 -8 -8 -8 -8 -8 -8 -8 -8 -8 -8 -8 -8 -8 -8 -8 -8 -9
-6 -6 -6 -6 -7 -7 -7 -7 -7 -7 -7 -7 -7 -7 -7 -7 -7 -7 -7 -7 -7 -7 -7 -7 -7 -8 -8 -8 -8 -8 -8 -8 -8 -8 -8 -8 -8 -8 -8 -8 -8 -9 -9 -9
-6 -6 -6 -7 -7 -7 -7 -7 -7 -7 -7 -7 -7 -7 -7 -8 -8 -8 -8 -8 -8 -8 -8 -8 -8 -8 -8 -8 -8 -8 -8 -8 -9 -9 -9 -9 -9 -9 -9 -9 -9 -9 -9 -9
Wind_Speed
8 7 6 8 9 9 11 11 11 12 12 12 9 8 7 6 6 6 6 6 6 6 5 5 5 6 5 5 4 3 3 3 3 3 3 3 3 3 3 3 2 3 2 2
6 6 7 10 12 12 13 13 14 15 14 10 7 6 6 6 5 6 6 7 7 6 6 6 6 6 5 5 4 3 3 3 3 3 3 3 3 3 3 2 2 2 2 2
5 4 5 9 9 10 8 9 10 13 11 7 7 7 7 7 6 7 7 7 7 7 6 6 6 6 5 5 4 3 3 3 2 3 3 4 3 3 2 2 2 2 2 2
3 2 8 4 1 5 7 8 9 9 8 7 8 8 8 7 7 7 7 7 7 7 7 6 6 6 5 4 4 3 3 3 3 3 3 3 3 3 2 2 2 2 2 2
3 5 9 5 3 3 5 7 6 8 8 7 7 8 7 4 5 7 8 8 7 7 7 6 5 5 4 4 3 3 3 3 3 3 3 3 3 3 2 2 2 2 2 2
4 5 7 3 1 0 2 5 2 4 6 6 6 7 6 5 7 7 7 6 6 6 6 5 5 4 4 4 3 3 3 3 3 3 4 3 3 3 2 2 2 2 2 2
8 7 7 2 1 2 3 3 1 3 5 5 7 7 7 8 7 7 7 6 6 5 5 5 4 3 3 3 3 3 3 3 3 3 3 3 3 2 2 2 2 2 2 2
5 7 7 2 3 4 3 3 3 5 5 6 8 8 8 8 7 7 6 6 5 5 5 4 4 3 3 4 3 3 3 2 2 3 2 2 2 1 1 1 1 1 1 2
6 6 3 3 5 4 3 4 5 5 6 6 7 8 8 8 7 6 6 5 5 5 5 4 3 3 4 3 3 2 2 2 2 2 2 1 1 1 1 0 1 1 1 2
6 8 7 7 7 6 5 6 6 7 7 6 8 8 8 7 6 6 5 5 4 4 4 4 4 3 3 3 3 2 2 2 2 1 1 1 1 1 1 1 1 1 2 2
7 8 7 7 7 6 6 6 6 7 7 7 7 8 8 7 6 5 5 5 4 4 4 5 4 4 3 2 2 2 2 1 1 1 1 1 1 1 2 2 2 2 2 2
7 6 5 6 5 5 6 6 6 7 7 6 7 7 7 7 6 5 5 4 4 4 5 5 4 3 3 2 2 2 1 1 1 1 1 1 1 2 2 2 4 3 3 3
6 4 5 6 6 5 6 6 6 6 7 7 6 6 6 6 5 5 5 5 5 5 5 5 4 2 2 1 1 2 1 1 1 1 1 1 1 2 2 3 3 3 3 4
5 4 5 5 5 5 5 5 5 5 5 5 5 4 4 4 4 5 5 4 4 4 4 3 2 2 2 1 1 1 1 1 1 1 1 1 1 1 1 2 2 2 3 4
5 5 5 5 5 4 4 4 4 4 4 4 3 3 3 4 4 4 4 3 3 3 3 2 2 2 1 1 1 1 1 1 1 1 1 1 1 1 1 1 2 2 2 3
4 3 4 4 5 5 4 4 4 4 4 4 4 4 4 4 4 4 3 2 2 3 2 2 2 2 1 1 1 1 1 1 0 0 0 0 0 0 1 1 1 2 2 2
2 3 4 5 6 5 5 4 4 4 4 4 4 4 3 3 3 3 3 3 3 3 3 2 2 2 1 1 1 1 1 1 1 0 0 0 0 1 1 1 1 1 2 3
4 4 4 5 4 5 4 4 3 3 3 3 3 2 2 2 3 3 3 3 2 2 2 2 2 2 1 1 1 1 1 1 0 0 0 1 1 1 1 1 1 1 2 2
3 3 3 3 3 3 3 3 3 3 3 2 2 2 3 3 3 3 3 2 2 2 3 2 2 1 1 1 0 1 1 1 0 1 0 1 1 1 0 1 1 1 2 2
1 1 1 1 1 1 2 2 2 2 2 2 2 2 2 3 3 2 2 1 2 2 2 2 1 1 1 1 0 1 1 1 1 1 0 1 1 1 1 1 1 1 1 2
1 1 1 1 1 2 1 1 1 2 2 1 1 2 2 3 2 1 1 2 2 2 2 2 1 1 1 0 0 1 1 1 1 1 1 1 1 1 1 1 1 1 1 2
1 1 1 1 1 2 2 1 1 2 2 1 1 1 1 2 2 1 1 2 2 3 2 1 1 1 1 0 0 0 0 1 1 1 1 1 1 1 1 1 1 1 2 2
1 1 1 1 1 1 2 2 1 1 1 2 1 1 1 2 2 1 2 2 2 3 2 1 2 2 1 1 0 0 1 1 1 1 1 1 1 2 2 2 2 2 2 2
1 0 0 1 1 1 2 2 2 1 1 2 2 2 1 1 1 1 2 3 4 4 2 2 2 2 1 1 0 0 1 1 1 1 1 1 2 2 2 2 2 2 2 2
1 1 1 1 0 1 2 2 1 1 1 1 2 2 1 1 1 2 2 2 3 3 2 2 3 2 1 1 0 1 1 1 1 1 2 2 2 2 2 2 2 2 2 2
1 1 1 1 1 1 1 1 1 1 1 1 2 2 2 2 2 2 2 2 2 3 2 2 2 2 1 1 1 1 1 1 1 1 2 2 2 2 2 2 3 2 3 3
1 0 0 0 1 1 1 1 1 1 1 1 2 2 2 2 2 2 2 2 2 2 2 2 2 2 1 1 1 1 1 1 2 2 2 2 2 2 2 3 3 3 3 3
Wind_Direction
264 276 269 262 254 238 234 245 253 267 272 280 290 294 296 303 307 308 312 317 317 314 312 311 313 315 311 309 305 296 292 297 305 309 305 297 290 284 277 273 271 271 272 278
266 263 266 270 261 247 246 250 252 266 274 284 294 294 294 298 299 302 308 313 315 311 308 306 306 309 312 313 308 296 294 302 314 316 310 302 295 288 277 276 276 271 264 270
271 290 281 265 249 236 241 238 242 254 267 286 295 296 296 293 289 295 303 305 306 308 301 298 298 297 296 299 302 301 302 306 312 310 308 303 299 289 277 279 288 275 269 273
271 278 255 270 270 232 243 257 250 257 271 283 294 303 295 282 282 292 297 298 301 305 303 299 296 296 296 298 298 297 299 302 309 309 304 301 296 286 285 284 284 284 273 275
236 262 275 276 237 219 238 273 253 249 267 287 307 303 289 281 291 294 292 295 298 302 302 299 295 294 292 291 292 291 293 299 304 303 298 295 292 288 287 282 282 283 272 269
227 255 266 282 153 195 241 268 237 242 268 289 300 291 296 312 304 298 298 298 303 308 305 297 295 290 279 281 284 287 295 299 299 297 290 286 286 288 284 277 269 277 280 274
233 250 266 274 154 172 231 287 296 261 268 276 277 283 302 305 300 297 297 300 305 305 303 299 296 283 273 277 284 291 299 300 299 294 289 285 284 283 280 281 283 276 279 284
213 232 253 164 163 214 269 313 277 278 276 278 283 292 294 296 298 301 303 306 308 304 301 299 290 278 277 283 294 298 299 295 295 297 300 297 292 294 291 282 278 293 296 302
217 238 287 212 233 264 276 269 276 278 284 283 285 289 291 293 296 298 300 303 304 300 299 298 289 278 278 290 296 292 289 285 287 297 309 312 308 308 307 300 300 309 308 306
255 260 262 260 260 264 264 268 280 281 279 276 282 286 288 291 293 293 296 297 300 298 297 300 299 292 283 285 280 272 273 282 286 300 325 335 322 317 322 326 313 308 308 307
255 270 283 265 250 260 273 274 276 282 279 274 277 282 284 287 286 287 289 293 292 288 289 294 298 293 287 273 255 257 261 269 291 309 316 322 323 323 321 318 315 308 300 298
252 253 252 272 275 272 269 272 275 281 284 282 277 278 280 282 282 282 283 288 287 286 286 292 292 285 283 266 240 238 245 266 292 308 319 320 330 342 354 329 336 334 325 316
264 276 273 278 280 272 272 279 285 279 276 281 284 279 277 281 282 281 279 278 276 277 280 285 284 281 283 266 233 226 235 255 271 285 308 323 334 341 345 352 359 359 346 334
257 263 272 270 278 284 285 291 294 291 286 283 282 282 280 284 287 284 283 284 281 275 274 279 279 282 292 274 244 236 237 235 249 262 292 307 318 328 331 334 342 349 351 349
257 257 262 281 289 294 299 297 292 291 296 300 293 285 284 285 287 293 300 303 298 289 286 283 273 284 297 268 241 235 233 225 244 272 285 294 310 329 336 328 332 337 342 350
274 270 261 267 274 283 290 287 280 282 291 297 297 298 299 294 293 299 306 309 297 293 296 286 279 293 291 266 249 238 233 240 273 247 250 281 313 335 335 333 336 337 343 349
231 259 267 271 269 271 271 272 272 274 281 286 293 303 306 306 305 308 313 314 300 290 286 279 286 301 288 256 235 226 222 205 203 219 234 279 289 284 292 304 320 329 334 341
254 259 255 255 255 259 269 275 277 279 280 287 298 300 297 296 296 302 314 320 315 311 302 297 295 295 285 265 228 217 208 212 210 212 234 265 286 285 277 286 306 318 331 337
269 270 274 269 260 250 259 271 281 289 297 299 294 289 289 292 296 301 309 308 298 309 324 322 312 309 288 266 249 189 188 190 203 219 228 255 289 290 287 293 309 322 331 335
291 296 292 296 299 274 267 281 293 301 304 297 288 294 304 307 310 313 315 302 302 312 318 319 324 315 296 255 225 169 183 195 200 212 232 248 268 277 282 300 310 311 317 324
290 298 295 299 315 318 305 298 291 298 308 298 271 279 293 306 315 313 315 322 338 334 327 324 332 311 292 302 195 182 195 203 212 222 234 248 266 276 281 290 306 311 316 317
282 280 294 314 333 336 336 330 314 303 310 313 302 299 307 314 324 327 294 289 325 334 338 323 308 307 334 43 133 232 235 241 241 244 251 262 265 266 271 285 292 302 306 306
248 248 256 295 304 322 339 340 327 308 303 303 297 289 288 297 299 301 320 330 329 334 338 319 313 322 3 66 24 241 243 247 257 263 261 263 269 268 268 275 280 285 290 298
187 190 263 6 28 11 339 335 335 325 316 312 308 293 285 303 316 302 303 324 339 341 341 335 348 3 20 19 308 258 254 253 255 257 260 260 261 263 264 266 274 282 284 291
170 158 124 122 183 290 300 319 338 350 355 348 340 329 313 296 290 315 326 327 334 343 342 346 359 3 5 349 316 279 270 262 260 249 246 250 255 259 260 264 269 275 281 286
181 204 231 248 259 267 275 284 310 332 344 346 346 344 346 344 331 325 328 334 336 347 351 348 349 353 350 335 315 297 285 282 279 270 258 254 254 257 261 262 269 271 274 277
154 176 241 281 288 267 256 253 269 295 307 312 323 334 344 347 351 351 348 348 354 356 354 351 349 346 338 328 319 309 297 285 273 265 261 257 256 255 257 259 263 268 272 275
Height
1508 1508 1508 1506 1505 1506 1506 1498 1495 1487 1488 1484 1485 1486 1486 1485 1484 1482 1481 1479 1477 1475 1474 1472 1470 1469 1467 1465 1464 1464 1463 1463 1462 1461 1461 1461 1460 1460 1460 1459 1459 1459 1459 1458
1510 1508 1508 1505 1501 1500 1499 1496 1493 1490 1487 1485 1486 1485 1484 1483 1482 1480 1478 1476 1474 1473 1471 1469 1468 1466 1464 1463 1462 1461 1461 1460 1459 1458 1458 1458 1457 1457 1456 1456 1456 1456 1456 1455
1500 1507 1507 1495 1492 1493 1492 1491 1490 1486 1483 1483 1483 1483 1482 1481 1479 1478 1476 1474 1472 1470 1468 1467 1465 1464 1462 1461 1460 1459 1458 1457 1457 1456 1455 1455 1454 1454 1454 1453 1453 1453 1453 1452
1503 1506 1496 1485 1490 1490 1489 1488 1487 1485 1484 1483 1483 1482 1480 1479 1477 1475 1473 1471 1469 1467 1465 1464 1462 1461 1460 1459 1458 1457 1456 1455 1454 1454 1453 1453 1452 1452 1451 1451 1451 1450 1450 1450
1503 1495 1485 1485 1488 1489 1489 1485 1484 1484 1483 1482 1481 1479 1476 1476 1475 1473 1471 1469 1467 1465 1463 1461 1459 1458 1457 1456 1455 1454 1453 1453 1452 1451 1451 1450 1449 1449 1449 1448 1448 1448 1448 1448
1502 1493 1483 1480 1487 1488 1489 1482 1481 1482 1481 1481 1480 1475 1472 1473 1471 1469 1468 1466 1464 1462 1460 1458 1457 1455 1454 1453 1452 1451 1451 1450 1449 1449 1448 1448 1447 1446 1446 1446 1446 1446 1446 1446
1497 1491 1480 1484 1487 1488 1484 1477 1480 1479 1479 1479 1477 1475 1473 1470 1468 1466 1464 1462 1460 1459 1457 1455 1454 1453 1452 1451 1450 1449 1448 1447 1447 1446 1446 1445 1445 1444 1444 1444 1444 1444 1444 1443
1494 1490 1481 1483 1485 1483 1479 1479 1478 1477 1476 1475 1473 1471 1469 1467 1465 1463 1461 1459 1457 1456 1454 1453 1452 1450 1449 1448 1447 1446 1446 1445 1444 1444 1444 1443 1443 1442 1442 1442 1442 1442 1442 1441
1487 1482 1480 1480 1480 1479 1478 1477 1476 1475 1474 1472 1470 1467 1465 1463 1462 1460 1458 1456 1455 1453 1452 1450 1449 1448 1446 1445 1445 1444 1443 1443 1442 1442 1442 1441 1441 1440 1440 1440 1440 1440 1440 1439
1487 1479 1478 1477 1477 1476 1475 1475 1473 1472 1471 1469 1467 1464 1462 1460 1458 1456 1455 1453 1452 1450 1449 1447 1446 1445 1444 1443 1442 1442 1441 1441 1440 1440 1439 1439 1439 1439 1438 1438 1438 1438 1438 1438
1482 1477 1476 1473 1473 1472 1472 1471 1470 1469 1467 1465 1463 1461 1459 1457 1455 1453 1452 1450 1449 1447 1446 1445 1444 1443 1442 1441 1440 1440 1439 1439 1438 1438 1438 1437 1437 1437 1437 1437 1437 1437 1436 1436
1473 1472 1472 1470 1470 1470 1469 1467 1466 1465 1463 1462 1460 1458 1456 1454 1452 1450 1449 1447 1446 1445 1444 1442 1441 1440 1440 1439 1438 1438 1438 1437 1437 1437 1436 1436 1436 1436 1436 1436 1435 1435 1435 1435
1470 1469 1469 1467 1467 1466 1465 1464 1463 1461 1459 1458 1456 1455 1453 1451 1449 1447 1446 1444 1443 1442 1441 1440 1439 1438 1438 1437 1437 1437 1436 1436 1436 1436 1435 1435 1435 1434 1434 1434 1434 1434 1433 1433
1467 1467 1466 1464 1464 1463 1462 1460 1459 1458 1456 1455 1453 1452 1450 1448 1446 1445 1443 1442 1441 1440 1439 1439 1438 1437 1437 1436 1436 1436 1435 1435 1435 1435 1434 1434 1434 1434 1433 1433 1433 1432 1432 1432
1464 1464 1463 1461 1461 1460 1458 1457 1456 1454 1453 1452 1450 1449 1447 1446 1444 1443 1441 1440 1439 1438 1438 1437 1436 1436 1436 1435 1435 1435 1434 1434 1434 1434 1434 1434 1434 1433 1433 1433 1432 1432 1431 1431
1460 1460 1459 1459 1457 1456 1455 1454 1453 1452 1451 1449 1448 1447 1445 1444 1442 1441 1440 1439 1438 1437 1436 1436 1435 1435 1434 1434 1434 1434 1434 1434 1434 1433 1433 1433 1433 1433 1433 1432 1432 1431 1430 1430
1457 1456 1455 1455 1454 1453 1452 1452 1451 1449 1448 1447 1446 1445 1443 1442 1441 1439 1438 1437 1436 1436 1435 1434 1434 1433 1433 1433 1433 1433 1433 1433 1433 1433 1433 1432 1432 1432 1432 1432 1431 1431 1430 1429
1455 1454 1454 1453 1452 1451 1450 1449 1448 1447 1446 1445 1444 1443 1442 1440 1439 1438 1437 1436 1435 1435 1434 1433 1433 1432 1432 1432 1432 1432 1432 1432 1432 1432 1432 1432 1432 1431 1431 1431 1430 1430 1429 1428
1452 1451 1451 1450 1450 1449 1448 1447 1446 1446 1445 1444 1443 1441 1440 1439 1438 1437 1436 1435 1434 1433 1433 1432 1432 1431 1431 1431 1431 1431 1431 1431 1431 1431 1431 1431 1431 1430 1430 1430 1429 1429 1428 1427
1450 1449 1449 1448 1448 1447 1446 1446 1445 1444 1443 1442 1441 1440 1439 1438 1437 1436 1435 1434 1433 1433 1432 1431 1431 1430 1430 1430 1430 1430 1430 1430 1430 1430 1430 1430 1429 1429 1429 1428 1428 1427 1427 1426
1448 1448 1447 1447 1447 1446 1445 1445 1444 1443 1442 1441 1440 1439 1438 1437 1436 1435 1434 1433 1433 1432 1431 1430 1430 1430 1430 1429 1429 1429 1429 1429 1429 1429 1429 1428 1428 1428 1427 1427 1427 1426 1426 1425
1447 1446 1446 1446 1446 1445 1444 1444 1443 1442 1441 1440 1439 1438 1437 1436 1435 1434 1434 1433 1432 1431 1430 1430 1429 1429 1429 1428 1428 1428 1428 1428 1428 1427 1427 1427 1427 1426 1426 1426 1425 1425 1424 1424
1446 1446 1446 1446 1445 1444 1444 1443 1442 1441 1440 1439 1438 1437 1437 1436 1435 1434 1433 1432 1431 1430 1430 1429 1429 1428 1428 1428 1427 1427 1427 1427 1426 1426 1426 1425 1425 1425 1424 1424 1424 1423 1423 1422
1445 1445 1445 1445 1445 1444 1443 1443 1442 1441 1440 1439 1438 1437 1436 1435 1434 1433 1432 1431 1431 1430 1429 1428 1428 1428 1427 1427 1426 1426 1425 1425 1425 1424 1424 1424 1423 1423 1423 1422 1422 1422 1421 1421
1444 1444 1444 1444 1444 1443 1443 1442 1441 1440 1439 1438 1437 1437 1436 1435 1434 1433 1432 1431 1430 1429 1429 1428 1427 1427 1426 1425 1425 1424 1424 1423 1423 1423 1422 1422 1422 1421 1421 1421 1420 1420 1419 1419
1443 1443 1444 1444 1443 1443 1442 1441 1440 1440 1439 1438 1437 1436 1435 1434 1433 1432 1431 1430 1430 1429 1428 1427 1427 1426 1425 1424 1424 1423 1422 1422 1421 1421 1421 1420 1420 1420 1419 1419 1418 1418 1417 1417
1442 1443 1443 1442 1442 1442 1441 1441 1440 1439 1438 1437 1436 1436 1435 1434 1433 1432 1431 1430 1429 1428 1427 1427 1426 1425 1424 1424 1423 1422 1422 1421 1420 1420 1419 1419 1418 1418 1417 1417 1416 1416 1416 1415